W5ZYX Weather Reports


time (UTC)temp
C
wind
direction
speed
KPH
gust
KPH
rain 1hr
cm
rain 24hr
cm
rain mn
cm
humidity
%
barometer
mb
20260505184551 27 188 8.0 25.7 0.00 0.00 0.00 78 1008.5
20260505184036 27 229 6.4 17.7 0.00 0.00 0.00 77 1008.6
20260505183537 27 166 4.8 12.9 0.00 0.00 0.00 79 1008.7
20260505183052 27 143 6.4 12.9 0.00 0.00 0.00 79 1008.7
20260505182538 27 166 4.8 14.5 0.00 0.00 0.00 79 1008.8
20260505182036 27 262 3.2 19.3 0.00 0.00 0.00 78 1008.8
20260505181547 27 205 8.0 19.3 0.00 0.00 0.00 79 1008.9
20260505181037 27 206 4.8 24.1 0.00 0.00 0.00 81 1008.9
20260505180541 26 211 6.4 24.1 0.00 0.00 0.00 79 1008.8
20260505180056 26 218 4.8 20.9 0.00 0.00 0.00 80 1008.8
20260505175540 26 221 8.0 20.9 0.00 0.00 0.00 81 1008.8
20260505175039 26 218 4.8 20.9 0.00 0.00 0.00 80 1008.9
20260505174548 26 172 4.8 24.1 0.00 0.00 0.00 81 1009.0
20260505174037 26 178 6.4 24.1 0.00 0.00 0.00 81 1009.0
20260505173537 26 209 8.0 24.1 0.00 0.00 0.00 81 1009.0
20260505173049 26 209 6.4 22.5 0.00 0.00 0.00 81 1009.0
20260505172536 26 180 9.7 20.9 0.00 0.00 0.00 81 1009.0
20260505172036 26 169 6.4 19.3 0.00 0.00 0.00 82 1009.0
20260505171556 26 186 8.0 17.7 0.00 0.00 0.00 82 1009.1
20260505171039 26 216 6.4 16.1 0.00 0.00 0.00 83 1009.2
20260505170537 25 211 4.8 16.1 0.00 0.00 0.00 83 1009.2
20260505170051 25 199 6.4 17.7 0.00 0.00 0.00 83 1009.3
20260505165541 25 177 4.8 17.7 0.00 0.00 0.00 83 1009.3
20260505165039 25 196 4.8 17.7 0.00 0.00 0.00 83 1009.3
20260505164549 25 192 4.8 17.7 0.00 0.00 0.00 83 1009.3
20260505164037 25 179 6.4 12.9 0.00 0.00 0.00 84 1009.3
20260505163537 25 167 4.8 24.1 0.00 0.00 0.00 84 1009.2
20260505163049 25 207 9.7 24.1 0.00 0.00 0.00 84 1009.2
20260505162536 25 206 6.4 20.9 0.00 0.00 0.00 84 1009.3
20260505162036 25 177 6.4 20.9 0.00 0.00 0.00 84 1009.3
20260505161547 25 174 8.0 19.3 0.00 0.00 0.00 84 1009.3
20260505161038 24 189 6.4 17.7 0.00 0.00 0.00 85 1009.4
20260505160537 24 153 6.4 19.3 0.00 0.00 0.00 85 1009.4
20260505153052 23 209 8.0 24.1 0.00 0.00 0.00 86 1009.4
20260505152537 23 163 8.0 24.1 0.00 0.00 0.00 86 1009.4
20260505152041 23 222 6.4 19.3 0.00 0.00 0.00 86 1009.3
20260505151549 23 175 6.4 19.3 0.00 0.00 0.00 86 1009.3
20260505151036 23 175 4.8 17.7 0.00 0.00 0.00 87 1009.3
20260505150536 23 161 8.0 17.7 0.00 0.00 0.00 87 1009.3
20260505140536 22 173 3.2 16.1 0.00 0.00 0.00 89 1009.2
20260505130103 21 240 4.8 16.1 0.00 0.00 0.00 89 1008.8
20260505125037 21 144 6.4 17.7 0.00 0.00 0.00 89 1008.7
20260505124602 21 211 6.4 17.7 0.00 0.00 0.00 89 1008.8
20260505124036 21 210 4.8 12.9 0.00 0.00 0.00 89 1009.0
20260505123536 21 208 4.8 16.1 0.00 0.00 0.00 89 1008.9
20260505123058 21 146 6.4 16.1 0.00 0.00 0.00 89 1008.9
20260505122535 21 227 4.8 14.5 0.00 0.00 0.00 89 1008.8
20260505122036 21 155 4.8 14.5 0.00 0.00 0.00 89 1008.8
20260505121552 21 200 4.8 17.7 0.00 0.00 0.00 89 1008.8
20260505121037 21 167 3.2 17.7 0.00 0.00 0.00 89 1008.7
20260505120537 21 179 6.4 17.7 0.00 0.00 0.00 89 1008.6
20260505120105 21 200 3.2 12.9 0.00 0.00 0.00 89 1008.5
20260505115536 21 171 4.8 14.5 0.00 0.00 0.00 89 1008.3
20260505115039 21 171 8.0 16.1 0.00 0.00 0.00 89 1008.4
20260505114556 21 167 6.4 16.1 0.00 0.00 0.00 89 1008.4
20260505114039 21 185 4.8 19.3 0.00 0.00 0.00 89 1008.2
20260505113540 21 191 6.4 19.3 0.00 0.00 0.00 89 1008.2
20260505113102 21 202 1.6 16.1 0.00 0.00 0.00 89 1008.2
20260505112539 21 175 3.2 16.1 0.00 0.00 0.00 89 1008.1
20260505112039 21 175 3.2 16.1 0.00 0.00 0.00 89 1008.3
20260505111554 21 186 4.8 17.7 0.00 0.00 0.00 89 1008.5
20260505111040 21 229 4.8 17.7 0.00 0.00 0.00 89 1008.5
20260505110536 21 191 4.8 12.9 0.00 0.00 0.00 89 1008.5
20260505102039 21 249 8.0 17.7 0.00 0.00 0.00 89 1008.2
20260505101555 21 174 6.4 24.1 0.00 0.00 0.00 89 1008.2
20260505101038 21 161 8.0 24.1 0.00 0.00 0.00 89 1008.3
20260505100538 21 180 6.4 19.3 0.00 0.00 0.00 89 1008.3
20260505100100 21 208 6.4 17.7 0.00 0.00 0.00 89 1008.2
20260505095537 21 225 4.8 16.1 0.00 0.00 0.00 89 1008.3
20260505095036 21 173 6.4 17.7 0.00 0.00 0.00 89 1008.3
20260505094601 21 200 4.8 17.7 0.00 0.00 0.00 89 1008.3
20260505094039 21 138 4.8 16.1 0.00 0.00 0.00 89 1008.5
20260505093539 21 174 4.8 17.7 0.00 0.00 0.00 89 1008.4
20260505093056 21 148 6.4 19.3 0.00 0.00 0.00 89 1008.3
20260505092540 20 165 4.8 19.3 0.00 0.00 0.00 89 1008.5
20260505092038 20 236 3.2 14.5 0.00 0.00 0.00 89 1008.5
20260505091551 20 165 3.2 14.5 0.00 0.00 0.00 89 1008.6
20260505091037 20 178 4.8 16.1 0.00 0.00 0.00 89 1008.6
20260505090539 20 175 6.4 16.1 0.00 0.00 0.00 88 1008.7
20260505090104 20 203 4.8 11.3 0.00 0.00 0.00 88 1008.8
20260505085538 20 198 4.8 19.3 0.00 0.00 0.00 88 1008.7
20260505085040 20 196 4.8 19.3 0.00 0.00 0.00 88 1008.8
20260505084558 20 200 4.8 12.9 0.00 0.00 0.00 88 1008.8
20260505084049 20 153 4.8 12.9 0.00 0.00 0.00 88 1009.0
20260505083540 20 189 4.8 12.9 0.00 0.00 0.00 88 1009.0
20260505083109 20 192 3.2 11.3 0.00 0.00 0.00 88 1009.1
20260505082539 20 178 4.8 17.7 0.00 0.00 0.00 88 1009.0
20260505082037 20 174 4.8 17.7 0.00 0.00 0.00 87 1009.1
20260505081553 20 168 3.2 14.5 0.00 0.00 0.00 87 1009.1
20260505081040 20 166 4.8 14.5 0.00 0.00 0.00 87 1009.2
20260505080540 20 196 4.8 12.9 0.00 0.00 0.00 87 1009.2
20260505080053 20 211 4.8 12.9 0.00 0.00 0.00 87 1009.3
20260505075541 20 196 3.2 14.5 0.00 0.00 0.00 87 1009.4
20260505075039 20 144 3.2 14.5 0.00 0.00 0.00 87 1009.4
20260505074553 20 169 4.8 14.5 0.00 0.00 0.00 87 1009.5
20260505074036 20 130 4.8 12.9 0.00 0.00 0.00 87 1009.6
20260505073538 20 161 3.2 12.9 0.00 0.00 0.00 87 1009.5
20260505073056 20 153 3.2 16.1 0.00 0.00 0.00 86 1009.4
20260505072536 20 183 3.2 16.1 0.00 0.00 0.00 86 1009.4
20260505072037 20 174 6.4 16.1 0.00 0.00 0.00 86 1009.5
20260505071552 20 175 3.2 17.7 0.00 0.00 0.00 86 1009.5
20260505071039 20 198 4.8 24.1 0.00 0.00 0.00 86 1009.7
20260505070537 21 150 6.4 24.1 0.00 0.00 0.00 85 1009.7
20260505070104 21 174 6.4 22.5 0.00 0.00 0.00 85 1009.8
20260505065537 21 173 3.2 20.9 0.00 0.00 0.00 85 1010.0
20260505065036 21 178 4.8 20.9 0.00 0.00 0.00 85 1010.0
20260505064554 21 113 4.8 16.1 0.00 0.00 0.00 85 1010.2
20260505064039 21 153 4.8 16.1 0.00 0.00 0.00 85 1010.2
20260505063536 21 138 4.8 16.1 0.00 0.00 0.00 85 1010.2
20260505063049 21 170 8.0 16.1 0.00 0.00 0.00 85 1010.2
20260505062536 21 155 4.8 22.5 0.00 0.00 0.00 85 1010.0
20260505062037 21 182 8.0 22.5 0.00 0.00 0.00 85 1010.0
20260505061614 21 182 4.8 19.3 0.00 0.00 0.00 85 1010.1
20260505061036 21 181 4.8 19.3 0.00 0.00 0.00 84 1010.0
20260505060537 21 169 6.4 19.3 0.00 0.00 0.00 84 1009.9
20260505060056 21 215 6.4 19.3 0.00 0.00 0.00 84 1010.1
20260505055537 21 132 6.4 19.3 0.00 0.00 0.00 84 1010.1
20260505055041 21 184 3.2 20.9 0.00 0.00 0.00 84 1010.1
20260505054556 21 194 8.0 20.9 0.00 0.00 0.00 83 1010.0
20260505054039 21 193 8.0 17.7 0.00 0.00 0.00 83 1010.2
20260505053537 21 153 6.4 22.5 0.00 0.00 0.00 83 1010.1
20260505053052 21 188 3.2 22.5 0.00 0.00 0.00 83 1010.2
20260505052536 21 170 6.4 22.5 0.00 0.00 0.00 83 1010.1
20260505052036 21 162 8.0 22.5 0.00 0.00 0.00 83 1009.9
20260505051547 21 178 6.4 20.9 0.00 0.00 0.00 83 1010.0
20260505051036 21 178 8.0 20.9 0.00 0.00 0.00 83 1010.2
20260505050538 21 217 8.0 24.1 0.00 0.00 0.00 83 1010.3
20260505041555 22 196 6.4 14.5 0.00 0.00 0.00 81 1010.6
20260505041037 22 152 4.8 17.7 0.00 0.00 0.00 81 1010.6
20260505040537 22 165 6.4 20.9 0.00 0.00 0.00 80 1010.5
20260505040100 22 213 6.4 20.9 0.00 0.00 0.00 80 1010.4
20260505035538 22 200 6.4 19.3 0.00 0.00 0.00 80 1010.4
20260505035037 22 197 6.4 19.3 0.00 0.00 0.00 80 1010.4
20260505034550 22 166 9.7 19.3 0.00 0.00 0.00 79 1010.3
20260505034037 22 171 6.4 19.3 0.00 0.00 0.00 79 1010.4
20260505033537 22 182 6.4 19.3 0.00 0.00 0.00 79 1010.4
20260505033059 22 194 6.4 19.3 0.00 0.00 0.00 79 1010.5
20260505032537 22 194 6.4 20.9 0.00 0.00 0.00 79 1010.4
20260505032036 22 197 8.0 20.9 0.00 0.00 0.00 78 1010.2
20260505031552 22 144 6.4 19.3 0.00 0.00 0.00 78 1010.1
20260505031036 22 171 8.0 19.3 0.00 0.00 0.00 77 1010.0
20260505030536 22 171 4.8 14.5 0.00 0.00 0.00 77 1010.0
20260505030051 22 200 4.8 17.7 0.00 0.00 0.00 77 1010.2
20260505025536 23 159 8.0 25.7 0.00 0.00 0.00 76 1010.1
20260505025038 23 175 9.7 25.7 0.00 0.00 0.00 76 1010.1
20260505024549 23 184 8.0 20.9 0.00 0.00 0.00 76 1010.1
20260505024036 23 156 9.7 22.5 0.00 0.00 0.00 76 1010.2
20260505023537 23 196 6.4 22.5 0.00 0.00 0.00 75 1010.2
20260505023051 23 159 8.0 20.9 0.00 0.00 0.00 75 1010.2
20260505022539 23 167 8.0 17.7 0.00 0.00 0.00 75 1010.2
20260505022037 23 175 6.4 17.7 0.00 0.00 0.00 75 1009.9
20260505021549 23 143 9.7 20.9 0.00 0.00 0.00 75 1010.0
20260505021036 23 156 6.4 20.9 0.00 0.00 0.00 75 1009.9
20260505020540 23 173 8.0 17.7 0.00 0.00 0.00 74 1010.0
20260505020050 23 165 6.4 16.1 0.00 0.00 0.00 74 1009.9
20260505015537 23 163 4.8 16.1 0.00 0.00 0.00 74 1009.8
20260505015040 23 162 8.0 16.1 0.00 0.00 0.00 74 1009.8
20260505014549 23 190 6.4 16.1 0.00 0.00 0.00 73 1009.8
20260505014039 23 182 6.4 16.1 0.00 0.00 0.00 73 1009.7
20260505013539 23 170 4.8 16.1 0.00 0.00 0.00 73 1009.8
20260505013054 23 163 6.4 14.5 0.00 0.00 0.00 72 1009.7
20260505012539 23 134 6.4 19.3 0.00 0.00 0.00 72 1009.6
20260505012039 24 187 6.4 22.5 0.00 0.00 0.00 72 1009.6
20260505011548 24 175 9.7 22.5 0.00 0.00 0.00 71 1009.6
20260505011037 24 166 8.0 22.5 0.00 0.00 0.00 71 1009.5
20260505010540 24 158 9.7 22.5 0.00 0.00 0.00 71 1009.5
20260505010103 24 217 6.4 14.5 0.00 0.00 0.00 71 1009.6
20260505005537 24 134 4.8 11.3 0.00 0.00 0.00 71 1009.5
20260505005040 24 150 4.8 19.3 0.00 0.00 0.00 71 1009.6
20260505004553 24 173 6.4 19.3 0.00 0.00 0.00 70 1009.5
20260505004040 24 171 8.0 17.7 0.00 0.00 0.00 70 1009.5
20260505003541 25 145 8.0 19.3 0.00 0.00 0.00 70 1009.5
20260505003048 25 165 6.4 19.3 0.00 0.00 0.00 70 1009.6
20260505002540 25 171 8.0 19.3 0.00 0.00 0.00 69 1009.7
20260505002040 25 214 4.8 17.7 0.00 0.00 0.00 70 1009.8
20260505001552 25 190 8.0 19.3 0.00 0.00 0.00 69 1009.8
20260505001039 25 150 8.0 19.3 0.00 0.00 0.00 69 1009.9
20260505000537 25 163 6.4 19.3 0.00 0.00 0.00 69 1009.9
20260504235540 25 181 6.4 17.7 0.00 0.00 0.00 68 1010.0
20260504235037 25 159 8.0 19.3 0.00 0.00 0.00 67 1009.8
20260504234605 25 202 9.7 19.3 0.00 0.00 0.00 67 1010.0
20260504234037 25 179 6.4 19.3 0.00 0.00 0.00 67 1010.0
20260504233540 25 152 9.7 19.3 0.00 0.00 0.00 68 1010.0
20260504233050 25 166 9.7 22.5 0.00 0.00 0.00 68 1010.2
20260504232537 25 178 9.7 27.4 0.00 0.00 0.00 67 1010.2
20260504232037 25 150 8.0 27.4 0.00 0.00 0.00 67 1010.2
20260504231553 25 166 9.7 24.1 0.00 0.00 0.00 67 1010.0
20260504231037 26 161 8.0 29.0 0.00 0.00 0.00 66 1010.1
20260504230535 26 202 11.3 29.0 0.00 0.00 0.00 67 1010.2
20260504230054 26 169 4.8 17.7 0.00 0.00 0.00 67 1010.3
20260504225537 26 174 4.8 17.7 0.00 0.00 0.00 66 1010.6
20260504225037 26 186 8.0 14.5 0.00 0.00 0.00 66 1010.7
20260504224550 26 157 6.4 16.1 0.00 0.00 0.00 67 1010.7
20260504224039 26 155 4.8 16.1 0.00 0.00 0.00 66 1010.7
20260504223537 26 200 4.8 19.3 0.00 0.00 0.00 65 1010.7
20260504223052 26 161 6.4 25.7 0.00 0.00 0.00 65 1010.6
20260504222536 26 171 9.7 27.4 0.00 0.00 0.00 65 1010.6
20260504222037 26 166 8.0 27.4 0.00 0.00 0.00 64 1010.6
20260504221547 26 126 11.3 22.5 0.00 0.00 0.00 65 1010.7
20260504221038 26 152 8.0 24.1 0.00 0.00 0.00 64 1010.8
20260504220537 26 161 11.3 24.1 0.00 0.00 0.00 64 1010.8
20260504220057 26 163 6.4 25.7 0.00 0.00 0.00 65 1010.9
20260504215537 26 173 11.3 25.7 0.00 0.00 0.00 64 1010.9
20260504215037 26 161 11.3 22.5 0.00 0.00 0.00 63 1010.9
20260504214547 26 153 8.0 22.5 0.00 0.00 0.00 63 1011.0
20260504214036 26 153 9.7 20.9 0.00 0.00 0.00 62 1011.3
20260504213536 26 188 11.3 19.3 0.00 0.00 0.00 62 1011.4
20260504213104 26 192 6.4 17.7 0.00 0.00 0.00 63 1011.4
20260504212537 26 198 6.4 24.1 0.00 0.00 0.00 63 1011.4
20260504212036 26 163 11.3 24.1 0.00 0.00 0.00 60 1011.6
20260504211549 26 205 6.4 17.7 0.00 0.00 0.00 60 1011.7
20260504211036 26 162 6.4 19.3 0.00 0.00 0.00 61 1011.8
20260504210537 26 194 6.4 24.1 0.00 0.00 0.00 61 1011.9
20260504210046 26 195 11.3 24.1 0.00 0.00 0.00 63 1011.8
20260504205539 26 155 8.0 25.7 0.00 0.00 0.00 63 1012.1
20260504205037 26 211 9.7 25.7 0.00 0.00 0.00 61 1012.2
20260504204602 26 161 8.0 27.4 0.00 0.00 0.00 61 1012.3
20260504204037 26 151 12.9 27.4 0.00 0.00 0.00 63 1012.4
20260504203537 26 175 4.8 20.9 0.00 0.00 0.00 62 1012.5
20260504203056 26 174 8.0 20.9 0.00 0.00 0.00 60 1012.4
20260504202537 26 221 4.8 17.7 0.00 0.00 0.00 61 1012.5
20260504202037 26 129 6.4 17.7 0.00 0.00 0.00 61 1012.6
20260504201552 26 202 6.4 20.9 0.00 0.00 0.00 61 1012.7
20260504201036 26 217 6.4 20.9 0.00 0.00 0.00 61 1012.7
20260504200536 26 159 8.0 20.9 0.00 0.00 0.00 62 1012.8
20260504200049 26 197 6.4 27.4 0.00 0.00 0.00 61 1013.0
20260504195538 26 161 8.0 27.4 0.00 0.00 0.00 61 1013.2
20260504195037 26 190 6.4 24.1 0.00 0.00 0.00 62 1013.2
20260504194547 26 161 8.0 24.1 0.00 0.00 0.00 60 1013.2
20260504194038 26 194 4.8 24.1 0.00 0.00 0.00 60 1013.3
20260504193536 26 197 6.4 24.1 0.00 0.00 0.00 60 1013.4
20260504193055 26 173 9.7 20.9 0.00 0.00 0.00 61 1013.4
20260504192537 26 138 6.4 19.3 0.00 0.00 0.00 63 1013.4
20260504192038 26 180 6.4 24.1 0.00 0.00 0.00 59 1013.5
20260504191548 25 163 9.7 24.1 0.00 0.00 0.00 62 1013.5
20260504191037 26 172 8.0 24.1 0.00 0.00 0.00 62 1013.5
20260504190537 26 169 11.3 24.1 0.00 0.00 0.00 61 1013.7
20260504190053 26 180 8.0 27.4 0.00 0.00 0.00 62 1013.6
20260504185536 25 205 14.5 27.4 0.00 0.00 0.00 60 1013.8
20260504185036 25 150 9.7 24.1 0.00 0.00 0.00 61 1013.8